Buffalo, NY

9:38 PM EDT on May 23, 2017 (GMT -0400)
Buffalo Niagara International

Weather History for KBUF - October, 2014

Change the Weather History Date:

Saturday, October 11, 2014

  Actual Average Record
Temperature  
Mean Temperature 49 °F 52 °F  
Max Temperature 56 °F 61 °F 82 °F (1949)
Min Temperature 41 °F 44 °F 29 °F (1964)
Degree Days  
Heating Degree Days 16 13  
Month to date heating degree days 108 121  
Since 1 July heating degree days 238 283  
Cooling Degree Days 0 0  
Month to date cooling degree days 3 0  
Year to date cooling degree days 510 540  
Moisture  
Dew Point 38 °F    
Average Humidity 63    
Maximum Humidity 83    
Minimum Humidity 43    
Precipitation  
Precipitation 0.00 in 0.12 in 2.03 in (1877)
Month to date precipitation 2.89 1.36  
Year to date precipitation 35.96 30.42  
Snow  
Snow 0.00 in 0.00 in 1.00 in (1906)
Month to date snowfall T 0.2  
Since 1 July snowfall T 0.2  
Since 1 September snowfall T 0.2  
Snow Depth 0.00 in    
Sea Level Pressure  
Sea Level Pressure 30.17 in    
Wind  
Wind Speed 5 mph (NNW)    
Max Wind Speed 14 mph    
Max Gust Speed 18 mph    
Visibility 10 miles    
Events      
T = Trace of Precipitation, MM = Missing Value Source: NWS Daily Summary

Daily Weather History Graph

Daily Weather History Graph

Search for Another Location

Airport or City:

Trip Planner

Search our weather history database for the weather conditions in past years. The results will help you decide how hot, cold, wet, or windy it might be!

Date:

Astronomy

Oct. 11, 2014 Rise Set
Actual Time 7:23 AM EDT 6:38 PM EDT
Civil Twilight 6:55 AM EDT 7:07 PM EDT
Nautical Twilight 6:22 AM EDT 7:40 PM EDT
Astronomical Twilight 5:49 AM EDT 8:12 PM EDT
Moon 9:00 PM EDT (10/11) 10:49 AM EDT (10/11)
Length of Visible Light 12h 12m
Length of Day
11h 15m
Waning Gibbous, 87% of the Moon is Illuminated
Oct 11
Waning Gibbous
Oct 15
Last Quarter
Oct 23
New
Oct 30
First Quarter
Nov 6
Full

Hourly Weather History & Observations

Time (EDT) Temp. Windchill Dew Point Humidity Pressure Visibility Wind Dir Wind Speed Gust Speed Precip Events Conditions
12:54 AM 46.9 °F - 39.0 °F 74% 30.12 in 10.0 mi North 3.5 mph - N/A   Mostly Cloudy
1:54 AM 46.0 °F 44.8 °F 39.0 °F 76% 30.12 in 10.0 mi NE 3.5 mph - N/A   Mostly Cloudy
2:54 AM 46.0 °F - 39.0 °F 76% 30.12 in 10.0 mi Calm Calm - N/A   Mostly Cloudy
3:54 AM 46.0 °F 44.8 °F 39.0 °F 76% 30.10 in 10.0 mi NE 3.5 mph - N/A   Mostly Cloudy
4:54 AM 45.0 °F 43.5 °F 39.9 °F 82% 30.11 in 10.0 mi NNW 3.5 mph - N/A   Mostly Cloudy
5:54 AM 44.1 °F 41.5 °F 39.0 °F 82% 30.12 in 10.0 mi NNW 4.6 mph - N/A   Scattered Clouds
6:54 AM 45.0 °F 43.5 °F 39.0 °F 80% 30.14 in 10.0 mi NNW 3.5 mph - N/A   Mostly Cloudy
7:54 AM 45.0 °F 43.5 °F 39.0 °F 80% 30.15 in 10.0 mi NW 3.5 mph - N/A   Mostly Cloudy
8:54 AM 46.0 °F 43.1 °F 37.9 °F 73% 30.16 in 10.0 mi NNW 5.8 mph - N/A   Mostly Cloudy
9:54 AM 50.0 °F - 37.9 °F 63% 30.17 in 10.0 mi NW 5.8 mph - N/A   Partly Cloudy
10:54 AM 51.1 °F - 37.0 °F 59% 30.18 in 10.0 mi WNW 5.8 mph - N/A   Mostly Cloudy
11:54 AM 52.0 °F - 37.0 °F 57% 30.19 in 10.0 mi North 10.4 mph - N/A   Mostly Cloudy
12:54 PM 54.0 °F - 36.0 °F 51% 30.17 in 10.0 mi West 9.2 mph - N/A   Mostly Cloudy
1:54 PM 53.1 °F - 37.0 °F 55% 30.17 in 10.0 mi NW 6.9 mph - N/A   Mostly Cloudy
2:54 PM 55.0 °F - 35.1 °F 47% 30.17 in 10.0 mi NW 8.1 mph - N/A   Mostly Cloudy
3:54 PM 55.0 °F - 34.0 °F 45% 30.16 in 10.0 mi WNW 10.4 mph - N/A   Mostly Cloudy
4:54 PM 53.1 °F - 35.1 °F 50% 30.17 in 10.0 mi NNW 5.8 mph - N/A   Mostly Cloudy
5:54 PM 53.1 °F - 37.0 °F 55% 30.17 in 10.0 mi Calm Calm - N/A   Mostly Cloudy
6:54 PM 51.1 °F - 37.9 °F 61% 30.18 in 10.0 mi WSW 3.5 mph - N/A   Mostly Cloudy
7:54 PM 50.0 °F - 37.9 °F 63% 30.20 in 10.0 mi West 3.5 mph - N/A   Mostly Cloudy
8:54 PM 46.9 °F - 37.9 °F 71% 30.20 in 10.0 mi South 4.6 mph - N/A   Mostly Cloudy
9:54 PM 46.0 °F - 37.9 °F 73% 30.22 in 10.0 mi Calm Calm - N/A   Mostly Cloudy
10:54 PM 43.0 °F 40.3 °F 37.0 °F 80% 30.23 in 10.0 mi NE 4.6 mph - N/A   Scattered Clouds
11:54 PM 42.1 °F 40.2 °F 36.0 °F 79% 30.24 in 10.0 mi East 3.5 mph - N/A   Scattered Clouds